Location: ?�kov
(49.4404°N, 15.1201°E)
Time: 04:29:14
(UTC+00:00)

IRAS Rocket - Pass Details

Date: 07 June 2020
Orbit: 847 x 878 km, 100.1° (Epoch: 10 July)

Event Time Altitude Azimuth Distance (km) Brightness Sun altitude
Exits shadow 00:18:08 22° 181° (S) 1,776 5.3 -15.6°
Maximum altitude 00:21:40 62° 256° (WSW) 964 4.3 -15.4°
Drops below altitude 10° 00:27:10 10° 337° (NNW) 2,497 7.3 -15.1°
Sets 00:29:34 0° 341° (NNW) 3,434 8.2 -15.0°
